Regional Weather Roundup
Issued by NWS

Home | Current Version | Previous Version | Graphics & Text | Print | Product List | Glossary On
Versions: 1 2 3 4 5 6 7 8 9 10 11 12 13 14 15 16 17 18 19 20 21 22 23 24 25 26 27 28 29 30 31 32 33 34 35 36 37 38 39 40 41 42 43 44 45 46 47 48 49 50
000
ASUS45 KPSR 260800
RWRAZ

ARIZONA HOURLY REGIONAL WEATHER ROUNDUP
NATIONAL WEATHER SERVICE PHOENIX AZ
100 AM MST TUE MAY 26 2015

NOTE: FAIR INDICATES FEW OR NO CLOUDS BELOW 12,000 FEET WITH NO
SIGNIFICANT WEATHER AND/OR OBSTRUCTIONS TO VISIBILITY.

AZZ001>003-036-260900-
NORTHWEST ARIZONA

CITY           SKY/WX    TMP DP  RH WIND       PRES   REMARKS
KINGMAN        CLEAR     66  35  31 SW10      29.98S
$$

AZZ004>008-015-016-018-260900-
NORTH CENTRAL ARIZONA

CITY           SKY/WX    TMP DP  RH WIND       PRES   REMARKS
GRAND CANYON   CLEAR     38  36  92 CALM      30.14S
WILLIAMS       PTCLDY    45  37  76 S6        30.21S
PRESCOTT       CLEAR     58  34  40 S10       30.07F
FLAGSTAFF      NOT AVBL
PAYSON         CLEAR     54  39  58 CALM      30.11S
PAGE           CLEAR     62  44  51 CALM      29.97F
$$

AZZ009>014-017-260900-
NORTHEAST ARIZONA

CITY           SKY/WX    TMP DP  RH WIND       PRES   REMARKS
WINSLOW        NOT AVBL
SAINT JOHNS    CLEAR     49  40  71 S5        30.10F
WINDOW ROCK    CLEAR     39  36  89 CALM      30.14S
$$

AZZ023-260900-
GREATER PHOENIX AREA

CITY           SKY/WX    TMP DP  RH WIND       PRES   REMARKS
PHOENIX        CLEAR     79  40  24 W9        29.88R
DEER VALLEY    CLEAR     74  38  27 CALM      29.90S
SCOTTSDALE     CLEAR     76  38  25 NW3       29.92R
$$

AZZ027-028-260900-
SOUTHWEST MARICOPA COUNTY AND PINAL COUNTY

CITY           SKY/WX    TMP DP  RH WIND       PRES   REMARKS
CASA GRANDE    CLEAR     72  43  35 SW7       29.90S
$$

AZZ503-504-507>509-260900-
SOUTHEAST ARIZONA

CITY           SKY/WX    TMP DP  RH WIND       PRES   REMARKS
TUCSON         CLEAR     70  36  28 S6        29.99S
NOGALES        CLEAR     58  25  28 CALM      30.06R
SIERRA VISTA   CLEAR     59  24  25 W9        30.09S
SAFFORD        CLEAR     65  35  33 W8        29.97S
$$

AZZ020-021-025-026-031-260900-
SOUTHWEST ARIZONA

CITY           SKY/WX    TMP DP  RH WIND       PRES   REMARKS
YUMA           NOT AVBL
$$

CAZ031-033-041-043-047-048-061-260900-
SOUTHERN CALIFORNIA

CITY           SKY/WX    TMP DP  RH WIND       PRES   REMARKS
DOWNTOWN L.A.  CLOUDY    62  54  74 CALM      29.98F
L.A. AIRPORT   MOCLDY    61  55  81 W5        29.99F
SAN DIEGO      CLOUDY    63  54  72 N3        30.00F
BURBANK        CLOUDY    61  53  75 CALM      29.98F
ONTARIO        CLOUDY    60  53  77 CALM      29.98F
RIVERSIDE      CLOUDY    60  54  80 W3        29.99F
PALM SPRINGS   PTCLDY    71  53  52 E5        29.89S
EL CENTRO NAS  CLEAR     67  53  61 E7        29.85R
IMPERIAL       CLEAR     70  55  59 SE7       29.83R
BLYTHE         CLEAR     75  42  30 S9        29.85S
$$

NVZ020-UTZ003-260900-
SOUTHERN NEVADA-UTAH

CITY           SKY/WX    TMP DP  RH WIND       PRES   REMARKS
LAS VEGAS      NOT AVBL
SALT LAKE CITY MOCLDY    58  45  62 SE8       29.97F
$$

NMZ009-TXZ055-260900-
NEW MEXICO-WEST TEXAS

CITY           SKY/WX    TMP DP  RH WIND       PRES   REMARKS
ALBUQUERQUE    CLEAR     53  47  79 SE3       30.08S
EL PASO        CLEAR     68  36  30 NW10      30.00R
$$


........................KEY........................
SKY/WX - SKY CONDITION/WEATHER
TMP    - TEMPERATURE IN FAHRENHEIT
DP     - DEW POINT IN FAHRENHEIT
RH     - RELATIVE HUMIDITY IN PERCENT
WIND   - DIRECTION AND SPEED IN MILES PER HOUR (MPH)
VRB    - VARIABLE WIND DIRECTION
PRES   - MEAN SEA LEVEL PRESSURE IN INCHES OF MERCURY
         F - FALLING PRESSURE   R - RISING PRESSURE
         S - STEADY PRESSURE
VSB    - VISIBILITY IN MILES
HX     - HEAT INDEX IN FAHRENHEIT
WCI    - WIND CHILL INDEX IN FAHRENHEIT
TC     - TEMPERATURE IN CELSIUS WHICH IS ALSO KNOWN AS
         TEMPERATURE IN CENTIGRADE
AFB    - AIR FORCE BASE
         LUKE AFB IS LUKE AIR FORCE BASE
         DAVIS-MONTHAN IS DAVIS-MONTHAN AIR FORCE BASE
NAS    - NAVAL AIR STATION
         EL CENTRO NAS IS EL CENTRO NAVAL AIR STATION
N/A    - NOT AVAILABLE



USA.gov is the U.S. government's official web portal to all federal, state and local government web resources and services.